Yazyavan

Uzbekistan     40˚39′08″N   71˚44′42″E
temp.,
°C
wind,
m/s
gust,
m/s
humid.,
%
clouds,
%
prec.,
mm/h
press.,
hPa
HPBL,
m
28 november, sat
sat2823:00+3˚e1176100 0.0 102422
02:00+3˚ene2378100 0.0 102540
05:00+3˚sw2278100 0.0 102922
08:00+4˚wsw51486100 0.6 1036686
11:00+8˚w476187 0.8 1038982
14:00+8˚w146043 0.0 1038855
17:00+5˚sw257637 0.0 1041130
20:00+3˚wsw35870 0.0 1042128
29 november, sun
sun2923:00+2˚w12920 0.0 104348
02:00+1˚n01942 0.0 104230
05:00e11946 0.0 104228
08:00+1˚e11923 0.0 104124
11:00+4˚ene12711 0.0 1038395
14:00+7˚ene12600 0.0 1036592
17:00+5˚n01670 0.0 103722
20:00+3˚n117110 0.0 103722
30 november, mon
mon3023:00+2˚ne22765 0.0 103628
02:00+1˚ne22770 0.0 103625
05:00ne22750 0.0 103527
08:00ne22680 0.0 103444
11:00+5˚ene22498 0.0 1032374
14:00+7˚ne114370 0.0 1029476
17:00+4˚ne115274 0.0 102922
20:00+3˚ene225695 0.0 102822
1 december, tue
tue123:00+2˚ene126097 0.0 102622
02:00+2˚ene1161100 0.0 102622
05:00+2˚ene2260100 0.0 102539
08:00+2˚ne1158100 0.1 102622
11:00+5˚ne2247100 0.3 1026261
14:00+6˚sw2347100 0.1 1026418
17:00+5˚e3466100 0.1 1028185
20:00+4˚ne2471100 0.3 1029184
2 december, wed
wed223:00+4˚nne016995 0.3 103025
02:00+4˚se0068100 0.0 103022
05:00+3˚s117172 0.0 103022
08:00+3˚e017267 0.0 103122
11:00+6˚ne115384 0.0 1029260
14:00+9˚ne114469 0.0 1028413
17:00+7˚ne225881 0.0 102822
20:00+5˚se116763 0.0 102922